Regional Weather Roundup
Issued by NWS Northern Indiana

Home | Current Version | Previous Version | Text Only | Print | Product List | Glossary Off
Versions: 1 2 3 4 5 6 7 8 9 10 11 12 13 14 15 16 17 18 19 20 21 22 23 24 25 26 27 28 29 30 31 32 33 34 35 36 37 38 39 40 41 42 43 44 45 46 47 48 49 50

000
ASUS43 KIWX 260500
RWRIWX

KIWX WEATHER ROUNDUP
NATIONAL WEATHER SERVICE NORTHERN INDIANA
100 AM EDT TUE MAY 26 2015

NOTE: "FAIR" INDICATES FEW OR NO CLOUDS BELOW 12,000 FEET WITH NO
SIGNIFICANT WEATHER AND/OR OBSTRUCTIONS TO VISIBILITY.

* THESE STATIONS ARE NOT UNDER NWS QUALITY CONTROL. THEY ALSO MAY NOT
  REPORT WEATHER SUCH AS PRECIPITATION OR FOG.

INZ001>027-260600-
NORTHERN INDIANA

CITY           SKY/WX    TMP DP  RH WIND       PRES   REMARKS
SOUTH BEND     CLEAR     71  63  75 S9        30.01F
GOSHEN         CLEAR     69  63  81 S10       30.03R
MONTICELLO*    PTCLDY    69  66  92 S7        30.02F
WARSAW*        CLEAR     70  64  83 SW7       30.04F
ANGOLA*        CLEAR     70  63  78 SW8       30.04S
FORT WAYNE     MOCLDY    67  62  84 S12       30.06S
PERU/GRISSOM   CLEAR     67  64  88 S9        30.04F

$$
INZ028>050-260600-
CENTRAL INDIANA

CITY           SKY/WX    TMP DP  RH WIND       PRES   REMARKS
LAFAYETTE      PTCLDY    68  64  87 S8        30.03F
KOKOMO*        CLEAR     66  63  88 SW10      30.06S
MUNCIE*        CLOUDY    68  63  84 S8        30.08F
INDIANAPOLIS   CLOUDY    68  63  84 S9        30.06S

$$
MIZ043>046-050>051-056>058-064>065-071>073-077>080-260600-
SOUTHWEST LOWER MICHIGAN

CITY           SKY/WX    TMP DP  RH WIND       PRES   REMARKS
BATTLE CREEK   CLEAR     69  61  75 S13       30.02R
BENTON HARBOR  PTCLDY    69  62  78 S8        29.98S
COLDWATER*     PTCLDY    69  61  76 SW7       30.03S
HILLSDALE*     CLOUDY    69  64  83 S7        30.05S
HOLLAND        CLEAR     65  58  78 S6        29.98R
GRAND RAPIDS   CLEAR     66  60  81 S8        29.99R
KALAMAZOO      CLEAR     70  61  73 S10       30.01R
STURGIS*       CLEAR     68  63  83 S8        30.03S
THREE RIVERS*  FAIR      69  62  78 SW9       30.02S

$$
OHZ001>008-015>018-024>025-260600-
NORTHWEST OHIO

CITY           SKY/WX    TMP DP  RH WIND       PRES   REMARKS
DEFIANCE       CLOUDY    69  62  78 S7        30.06R
FINDLAY        MOCLDY    70  62  76 S12       30.08R
TOLEDO EXPRESS CLOUDY    70  62  76 SW8       30.06R
TOLEDO METCALF CLOUDY    71  61  70 SW12      30.07R
LIMA           MOCLDY    68  62  81 S8        30.10R

$$
AND FOR LAKE MICHIGAN COASTAL AND OPEN LAKE BUOY OBSERVATIONS

STATION/POSITION TEMP    WIND        PRES    VSBY  WAVE
                 AIR SEA DIR/SP/G                  HT/PER
                 (F)     (DEG/KT/KT) (MB)    (MI)  (FT/S)
CALUMET HARBOR    74     190/  9/ 15   N/A
MICHIGAN CITY     73     170/ 12/ 15   N/A
BURNS HARBOR      72     190/ 13/ 19 1015.6S
SAINT JOSEPH      72     160/  8/ 13 1015.2F
SOUTH LAKE BUOY   45 38  170/ 10/ 14 1014.5R         1
4 MI NW BRIDGMAN  63 55  210/  8/ 10   N/A           1/ 3
MICHIGAN CITY     64 52  210/ 10/ 12   N/A           1/ 2

$$
&&



USA.gov is the U.S. government's official web portal to all federal, state and local government web resources and services.